Weather WX

World > North America > United States > Ohio

Orange Village, Ohio Regional Weather

Lat: 41.47N, Lon: 81.51W
Wx Zone: OHZ011
Warning FLW WEATHER ALERT - FLASH FLOOD WATCH (More Info. Click Here) Warning
Feedback

Orange Village, OH Regional Weather

Expires:201906160100;;132926
ASUS41 KCLE 160012
RWRCLE
OHIO REGIONAL WEATHER ROUNDUP
NATIONAL WEATHER SERVICE WILMINGTON, OH
800 PM EDT SAT JUN 15 2019

NOTE: "FAIR" INDICATES FEW OR NO CLOUDS BELOW 12,000 FEET WITH NO
SIGNIFICANT WEATHER AND/OR OBSTRUCTIONS TO VISIBILITY.


OHZ009>014-019>023-028>033-038-089-160100-
   NORTHEAST OHIO
  
CITY           SKY/WX    TMP DP  RH WIND       PRES   REMARKS
CLE-HOPKINS    CLOUDY    67  63  87 S12       29.90S                  
CLE-LAKEFRONT  MOCLDY    67  62  84 S13       29.87S                  
CUY CO. ARPT   CLOUDY    64  63  94 SW7       29.89R                  
LORAIN-ELYRIA  CLOUDY    66  60  81 SW12      29.88F                  
ASHTABULA      LGT RAIN  64  64 100 SW5       29.90R FOG              
AKRON-CANTON   LGT RAIN  66  61  84 SW10      29.92R                  
WOOSTER        LGT RAIN  65  64  97 SW6       29.92R                  
MANSFIELD      CLOUDY    66  65  96 S9        29.90F                  
YOUNGSTOWN     HVY RAIN  64  62  93 SW3       29.92R FOG              
$$
 

SKY/WX - Weather  TMP - Temperature  DP - Dew Point  RH - Relative Humidity
WIND - Wind Direction/Speed PRES - Barometric Pressure VSB - Visibility
WCI - Wind Chill Index E13G22 Wind - East Wind 13 mph/Gusts of 22 mph